Weather History for Alpena, MI

Change the Weather History Date:

Wednesday, April 4, 2012

  Actual Average Record
Temperature  
Mean Temperature 42 °F 37 °F  
Max Temperature 52 °F 47 °F 79 °F (1921)
Min Temperature 32 °F 27 °F 0 °F (1932)
Degree Days  
Heating Degree Days 23 28  
Month to date heating degree days 97 116  
Since 1 July heating degree days 5806 6972  
Cooling Degree Days 0 0  
Month to date cooling degree days 0 0  
Year to date cooling degree days 6 0  
Moisture  
Dew Point 27 °F    
Average Humidity 61    
Maximum Humidity 89    
Minimum Humidity 32    
Precipitation  
Precipitation 0.00 in 0.08 in 0.90 in (2014)
Month to date precipitation 0.01 0.31  
Year to date precipitation 5.37 5.15  
Snow  
Snow 0.00 in 0.30 in 5.60 in (1980)
Month to date snowfall 0.0 1.3  
Since 1 July snowfall 53.3 79.6  
Snow Depth 0.00 in    
Sea Level Pressure  
Sea Level Pressure 29.97 in    
Wind  
Wind Speed 13 mph (NW)    
Max Wind Speed 24 mph    
Max Gust Speed 32 mph    
Visibility 10 miles    
Events      
T = Trace of Precipitation, MM = Missing Value Source: NWS Daily Summary

Daily Weather History Graph

Daily Weather History Graph

Search for Another Location

Airport:

Trip Planner

Search our weather history database for the weather conditions in past years. The results will help you decide how hot, cold, wet, or windy it might be!

Date:

Astronomy

Apr. 04, 2012 Rise Set
Actual Time 7:08 AM EDT 8:06 PM EDT
Civil Twilight 6:38 AM EDT 8:36 PM EDT
Nautical Twilight 6:02 AM EDT 9:12 PM EDT
Astronomical Twilight 5:25 AM EDT 9:50 PM EDT
Moon 5:54 PM EDT (4/4) 5:35 AM EDT (4/4)
Length of Visible Light 13h 58m
Length of Day
12h 58m
Waxing Gibbous, 93% of the Moon is Illuminated
Apr 4
Waxing Gibbous
Apr 6
Full
Apr 13
Last Quarter
Apr 21
New
Apr 29
First Quarter

Hourly Weather History & Observations

Time (EDT) Temp. Windchill Dew Point Humidity Pressure Visibility Wind Dir Wind Speed Gust Speed Precip Events Conditions
12:54 AM 39.0 °F 34.8 °F 34.0 °F 82% 29.95 in 10.0 mi West 5.8 mph - N/A   Clear
1:54 AM 37.9 °F 33.5 °F 33.1 °F 83% 29.95 in 10.0 mi West 5.8 mph - N/A   Clear
2:54 AM 36.0 °F 32.1 °F 32.0 °F 86% 29.94 in 10.0 mi West 4.6 mph - N/A   Clear
3:54 AM 35.1 °F 31.0 °F 30.9 °F 85% 29.92 in 10.0 mi West 4.6 mph - N/A   Clear
4:54 AM 34.0 °F 29.8 °F 30.0 °F 85% 29.92 in 10.0 mi West 4.6 mph - N/A   Clear
5:54 AM 36.0 °F 30.3 °F 30.0 °F 79% 29.92 in 10.0 mi West 6.9 mph - N/A   Clear
6:54 AM 36.0 °F 30.3 °F 30.0 °F 79% 29.94 in 10.0 mi NW 6.9 mph - N/A   Clear
7:54 AM 36.0 °F 31.1 °F 30.0 °F 79% 29.96 in 10.0 mi WNW 5.8 mph - N/A   Clear
8:00 AM 37.4 °F 32.8 °F 30.2 °F 75% 29.94 in 10.0 mi WNW 5.8 mph - N/A   Clear
8:54 AM 41.0 °F 34.7 °F 30.0 °F 65% 29.96 in 10.0 mi NW 10.4 mph - N/A   Clear
9:54 AM 45.0 °F 37.9 °F 27.0 °F 49% 29.96 in 10.0 mi NNW 16.1 mph 28.8 mph N/A   Clear
10:54 AM 45.0 °F 36.6 °F 26.1 °F 48% 29.99 in 10.0 mi North 21.9 mph 29.9 mph N/A   Clear
11:54 AM 46.9 °F - 26.1 °F 44% 29.99 in 10.0 mi NNW 16.1 mph 25.3 mph N/A   Partly Cloudy
12:54 PM 48.9 °F - 23.0 °F 36% 29.99 in 10.0 mi NNW 20.7 mph 26.5 mph N/A   Clear
1:54 PM 50.0 °F - 24.1 °F 36% 29.98 in 10.0 mi North 18.4 mph 25.3 mph N/A   Clear
2:54 PM 51.1 °F - 23.0 °F 33% 29.97 in 10.0 mi NNW 19.6 mph 27.6 mph N/A   Clear
3:54 PM 52.0 °F - 23.0 °F 32% 29.96 in 10.0 mi North 20.7 mph 26.5 mph N/A   Clear
4:54 PM 51.1 °F - 24.1 °F 35% 29.94 in 10.0 mi NNW 17.3 mph 23.0 mph N/A   Clear
5:54 PM 51.1 °F - 23.0 °F 33% 29.94 in 10.0 mi North 15.0 mph - N/A   Clear
6:54 PM 48.9 °F - 23.0 °F 36% 29.94 in 10.0 mi NNW 15.0 mph - N/A   Clear
7:54 PM 45.0 °F 39.3 °F 23.0 °F 42% 29.97 in 10.0 mi NNW 11.5 mph 20.7 mph N/A   Clear
8:54 PM 42.1 °F 35.7 °F 26.1 °F 53% 29.99 in 10.0 mi NNW 11.5 mph - N/A   Clear
9:54 PM 39.9 °F 33.4 °F 26.1 °F 58% 30.01 in 10.0 mi NNW 10.4 mph - N/A   Clear
10:54 PM 36.0 °F 27.5 °F 26.1 °F 67% 30.04 in 10.0 mi NNE 12.7 mph - N/A   Clear
11:54 PM 35.1 °F 25.5 °F 25.0 °F 67% 30.06 in 10.0 mi NNE 15.0 mph - N/A   Clear